Location: Radom
(51.4061°N, 21.1577°E)
Time: 12:04:24
(UTC+01:00)

ISS - Visible Passes

Search period start: 19 January 2019 00:00
Search period end: 29 January 2019 00:00
Orbit: 404 x 411 km, 51.6° (Epoch: 19 January)

Date Brightness Start Highest point End Pass type
(mag) Time Alt. Az. Time Alt. Az. Time Alt. Az.
23 Jan -1.3 18:39:59 10° SSW 18:40:55 16° SSW 18:40:55 16° SSW visible
24 Jan -2.0 17:49:16 10° S 17:51:38 18° SE 17:51:51 18° SE visible
24 Jan -0.4 19:24:28 10° WSW 19:24:35 11° WSW 19:24:35 11° WSW visible
25 Jan -1.4 16:59:09 10° SSE 17:00:28 12° SE 17:01:47 10° ESE visible
25 Jan -2.5 18:33:12 10° SW 18:35:26 34° SSW 18:35:26 34° SSW visible
26 Jan -2.7 17:42:05 10° SW 17:45:04 32° SSE 17:46:13 25° ESE visible
26 Jan -0.9 19:18:04 10° WSW 19:18:57 17° WSW 19:18:57 17° WSW visible
27 Jan -2.1 16:51:11 10° SSW 16:53:48 22° SE 16:56:25 10° E visible
27 Jan -3.6 18:26:41 10° WSW 18:29:40 65° SSW 18:29:40 65° SSW visible
28 Jan -3.4 17:35:20 10° SW 17:38:34 53° SSE 17:40:21 23° E visible
28 Jan -1.3 19:11:45 10° W 19:13:04 22° W 19:13:04 22° W visible
